Regional Weather Roundup
Issued by NWS

Home | Current Version | Previous Version | Graphics & Text | Print | Product List | Glossary Off
Versions: 1 2 3 4 5 6 7 8 9 10 11 12 13 14 15 16 17 18 19 20 21 22 23 24 25 26 27 28 29 30 31 32 33 34 35 36 37 38 39 40 41 42 43 44 45 46 47 48 49 50

000
ASUS43 KMKX 201200
RWRWI

WISCONSIN REGIONAL WEATHER ROUNDUP
NATIONAL WEATHER SERVICE MILWAUKEE/SULLIVAN WI
700 AM CDT WED AUG 20 2014

NOTE: "FAIR" INDICATES FEW OR NO CLOUDS BELOW 12,000 FEET WITH NO
SIGNIFICANT WEATHER AND/OR OBSTRUCTIONS TO VISIBILITY.

WIZ001-002-006>008-014>016-023>028-201300-
NORTHWEST WISCONSIN

CITY           SKY/WX    TMP DP  RH WIND       PRES   REMARKS
SUPERIOR ARPT  CLOUDY    61  60  96 CALM      29.87R
ASHLAND        CLOUDY    60  58  92 SW3       29.88R
6HR MIN TEMP:  59; 6HR MAX TEMP:  60;

HAYWARD        CLOUDY    60  59  96 CALM      29.88R
6HR MIN TEMP:  59; 6HR MAX TEMP:  60;

SIREN          FOG       60  59  98 E5        29.86F VSB<1/4
RICE LAKE      FOG       60  58  95 NE5       29.87F VSB<1/4
6HR MIN TEMP:  60; 6HR MAX TEMP:  62; 6HR PCP:  0.01;

LADYSMITH      CLOUDY    60  59  95 CALM      29.88F
6HR MIN TEMP:  59; 6HR MAX TEMP:  61;

EAU CLAIRE     CLOUDY    61  61 100 N6        29.84S
MENOMONIE      PTSUNNY   62  61  98 CALM      29.84S
6HR MIN TEMP:  62; 6HR MAX TEMP:  65;

NEW RICHMOND   FOG       57  57 100 CALM      29.85R VSB 1
OSCEOLA        FOG       60  60 100 CALM      29.87R VSB<1/4
$$

WIZ003>005-009-010-017-018-201300-
NORTH CENTRAL WISCONSIN

CITY           SKY/WX    TMP DP  RH WIND       PRES   REMARKS
WOODRUFF       CLOUDY    59  57  92 CALM      29.87R
RHINELANDER    CLOUDY    59  58  96 CALM      29.87R
6HR MIN TEMP:  59; 6HR MAX TEMP:  61;

EAGLE RIVER    CLOUDY    56  56 100 N3        29.85R
LAND O LAKES   CLOUDY    57  56  99 N5        29.86S FOG
PHILLIPS       CLOUDY    58  57  97 CALM      29.87R
6HR MIN TEMP:  58; 6HR MAX TEMP:  59;

TOMAHAWK       CLOUDY    58  56  96 NW3       29.87R FOG
MEDFORD        CLOUDY    58  58  99 NW7       29.87S
MERRILL        CLOUDY    59  59 100 CALM      29.86R FOG
$$

WIZ029-030-035-036-043>047-201300-
CENTRAL WISCONSIN

CITY           SKY/WX    TMP DP  RH WIND       PRES   REMARKS
WAUSAU         CLOUDY    60  58  92 NW7       29.85R
6HR MIN TEMP:  60; 6HR MAX TEMP:  62;

MOSINEE        CLOUDY    57  57 100 N9        29.86S FOG
MARSHFIELD     FOG       60  59  96 NE7       29.84S VSB 1/4
6HR MIN TEMP:  58; 6HR MAX TEMP:  63;

STEVENS POINT  PTCLDY    58  58  99 N5        29.84S
WAUPACA        PTCLDY    64  63  95 CALM      29.83S
6HR MIN TEMP:  61; 6HR MAX TEMP:  65;

WAUTOMA        FOG       61  61 100 CALM      29.83S VSB<1/4
WISC RAPIDS    CLEAR     61  60  97 CALM      29.84F
6HR MIN TEMP:  57; 6HR MAX TEMP:  61;

CAMP DOUGLAS   FOG       55  55 100 SW1       29.82F VSB 1/4
$$

WIZ011>013-019>022-031-037>040-048>050-201300-
NORTHEAST WISCONSIN

CITY           SKY/WX    TMP DP  RH WIND       PRES   REMARKS
ANTIGO         CLOUDY    58  58  99 W7        29.85S FOG
STURGEON BAY   CLOUDY    63  59  88 NW6       29.82R
6HR MIN TEMP:  61; 6HR MAX TEMP:  64;

GREEN BAY      MOCLDY    61  61 100 CALM      29.82R
6HR MIN TEMP:  60; 6HR MAX TEMP:  63;

MANITOWOC      NOT AVBL
APPLETON       PTCLDY    59  59 100 W6        29.82S
CLINTONVILLE   PTCLDY    61  59  94 NW6       29.82S
OSHKOSH        CLEAR     62  61  96 NW6       29.82S
6HR MIN TEMP:  62; 6HR MAX TEMP:  65;

$$

WIZ032>034-041-042-053>061-201300-
SOUTHWEST WISCONSIN

CITY           SKY/WX    TMP DP  RH WIND       PRES   REMARKS
LA CROSSE      PTCLDY    64  62  93 SE3       29.83R
6HR MIN TEMP:  63; 6HR MAX TEMP:  68;

SPARTA         FOG       59  58  97 CALM      29.83F VSB<1/4
VIROQUA        FAIR      60  60 100 CALM      29.83S
BOSCOBEL       FOG       63  62  97 CALM      29.84R VSB<1/4
6HR MIN TEMP:  61; 6HR MAX TEMP:  66;

PRAIRIE DU CHI CLOUDY    62  60  94 CALM      29.82S FOG
PLATTEVILLE    FAIR      62  61  94 S3        29.85R
$$

WIZ056-057-062-063-064-067-068-201300-
SOUTH CENTRAL WISCONSIN

CITY           SKY/WX    TMP DP  RH WIND       PRES   REMARKS
BARABOO/DELLS  CLEAR     60  58  94 CALM      29.82S
LONE ROCK      NOT AVBL
WATERTOWN      CLEAR     60  60 100 CALM      29.82S
MADISON        PTCLDY    63  61  93 CALM      29.83R
6HR MIN TEMP:  61; 6HR MAX TEMP:  67;

MIDDLETON      FAIR      60  60 100 CALM      29.84R
MONROE         PTCLDY    64  63  94 SW6       29.84R
JANESVILLE     PTCLDY    63  61  94 CALM      29.84R
$$

WIZ051-052-058>065-066-070>072-201300-
SOUTHEAST WISCONSIN

CITY           SKY/WX    TMP DP  RH WIND       PRES   REMARKS
MILWAUKEE      CLEAR     67  62  84 W5        29.83R
6HR MIN TEMP:  66; 6HR MAX TEMP:  69;

WAUKESHA       CLEAR     61  59  94 NW5       29.84R
MILWAUKEE/TIMM CLEAR     64  61  88 CALM      29.83S
RACINE         CLEAR     66  62  87 CALM      29.84R
6HR MIN TEMP:  65; 6HR MAX TEMP:  68;

BURLINGTON     FOG       58  58  99 CALM      29.84R VSB 1/2
KENOSHA        CLEAR     63  62  97 SW5       29.84R
6HR MIN TEMP:  61; 6HR MAX TEMP:  66;

FOND DU LAC    CLEAR     62  60  93 CALM      29.82S
6HR MIN TEMP:  61; 6HR MAX TEMP:  64;

SHEBOYGAN      FOG       62  61  96 CALM      29.82S VSB 1/2
6HR MIN TEMP:  60; 6HR MAX TEMP:  64;

WEST BEND      CLEAR     61  59  94 CALM      29.82S
JUNEAU         CLEAR     62  37  40 CALM      29.83F
$$

LSZ147-162-201300-
LAKE SUPERIOR

STATION/POSITION TIME  TEMP    WIND        PRES    WAVE
                       AIR SEA DIR/SP/G            HT/PER
                 (UTC) (F)     (DEG/KT/KT) (MB)    (FT/S)
W MID LAKE BUOY  1050   58 58  270/  6/  6 1010.1R   1
DEVILS ISLAND    1100   60     250/  7/  8 1010.5S
PORT WING        1100   60     180/  2/  3 1011.2
SAXON HARBOR     1100   59        CALM     1010.8S
$$

LMZ867-665-643>646-201300-
LAKE MICHIGAN

STATION/POSITION TIME  TEMP    WIND        PRES    WAVE
                       AIR SEA DIR/SP/G            HT/PER
                 (UTC) (F)     (DEG/KT/KT) (MB)    (FT/S)
N MID LAKE BUOY  1050   61 62  300/ 10/ 12 1007.8R   1/ 3
NORTHPORT PIER   1100   63     330/  9/ 11 1009.1R
SISTER BAY       1011   62     350/ 10/ 10   N/A
KEWAUNEE LAKESHO 1100   62     300/  2/  3 1008.3R
SHEBOYGAN LAKESH 1100   65 66  280/  7/  7 1009.8R
ATWATER BUOY     1100   67     290/  6     1010.8R
MILWAUKEE LAKESH 1100   67     300/  6/  9   N/A
S MID LAKE BUOY  1050   68 66  280/  8/ 10 1009.6R   1
KENOSHA   LAKESH 1100   68     270/  6/  6 1009.8R
$$

TC  - TEMPERATURE IN CELSIUS
VSB - VISIBILITY IN STATUTE MILES
WCI - WIND CHILL INDEX
HX  - HEAT INDEX




USA.gov is the U.S. government's official web portal to all federal, state and local government web resources and services.